Theta_e
313 316 316 316 317 318 319 318 317 317 317 317 316 315 315 315 315 316 316 317 315 314 314 314 314 313 314 314 314 314 314 314 315 315 315 315 316 316 316 316 316 315 315 314 313 312 311 310 310 310 310 310 309 309 308 309 309 310 310 311 313 313 313 314 316 318 319 319 319 320 320 320 320 319 319 319 319 319 318 317 317 316 315 316 316 316
313 316 317 317 318 318 318 317 316 316 316 316 315 315 315 315 315 316 316 317 314 313 313 314 313 313 314 314 314 315 315 316 315 315 315 316 316 317 316 315 315 314 313 312 311 310 310 309 308 308 308 308 307 307 307 307 308 308 309 310 311 312 312 312 313 315 317 317 318 318 318 318 318 318 318 318 317 317 316 315 315 314 314 314 314 315
315 316 317 317 317 317 317 315 315 315 315 315 315 315 315 316 316 316 316 315 313 312 313 314 313 313 314 314 315 316 316 316 316 316 316 317 316 315 314 314 313 313 312 311 310 309 309 307 306 306 306 306 305 306 306 306 306 307 308 309 310 311 311 310 311 312 314 315 316 316 317 317 317 317 316 316 315 315 314 313 313 312 312 313 313 313
318 318 317 317 316 316 316 315 314 314 314 315 315 315 315 316 316 316 316 315 313 313 314 314 313 314 316 316 316 316 316 316 317 317 317 316 315 314 313 312 312 311 310 310 308 307 307 306 305 304 304 304 304 305 305 305 305 306 306 307 308 309 309 309 309 310 311 313 314 314 314 314 314 314 312 312 312 312 311 311 311 311 311 311 311 311
319 319 316 316 316 315 316 315 315 314 315 316 316 316 316 316 316 316 316 315 314 315 314 314 315 317 318 319 318 317 317 317 316 315 315 314 314 313 312 311 310 310 309 308 307 306 306 305 304 303 303 303 303 303 304 304 304 305 305 306 307 308 308 308 308 308 309 310 312 312 311 311 311 311 310 309 310 310 309 309 309 309 309 310 310 310
318 317 315 315 315 315 315 315 316 316 316 316 317 317 317 317 316 316 316 315 316 317 314 314 318 320 318 318 320 318 318 318 315 313 312 312 312 311 310 309 309 308 307 306 305 304 304 304 303 302 302 302 302 302 302 303 303 304 304 304 305 306 306 306 306 307 307 308 309 309 310 310 310 310 309 309 309 309 308 308 308 308 307 308 308 308
316 314 314 316 316 316 316 315 316 316 316 317 318 317 317 316 316 316 316 316 316 317 315 314 318 320 318 319 320 318 319 318 313 311 311 311 310 309 309 308 307 307 306 305 304 303 303 303 302 302 301 301 301 301 301 302 302 302 302 303 303 304 304 304 305 306 306 307 307 308 308 308 309 309 309 309 308 308 308 307 307 307 306 305 306 306
315 314 313 315 316 317 317 316 317 316 316 318 317 316 316 315 316 317 316 315 315 316 316 315 316 319 319 319 319 318 319 317 313 312 311 310 309 308 307 307 306 305 304 304 303 302 302 302 301 301 300 300 300 300 300 300 300 301 300 300 301 302 302 302 303 304 304 305 306 306 307 307 307 307 307 307 307 306 305 305 305 305 304 304 304 304
315 315 315 315 315 316 317 317 317 316 317 317 314 313 314 314 314 315 314 315 315 315 317 317 316 320 320 318 318 318 317 316 313 312 311 309 309 308 307 306 305 304 303 302 302 301 301 301 300 300 299 299 299 299 300 300 300 300 299 299 299 300 300 301 301 303 303 304 304 305 305 306 306 306 306 306 305 305 304 304 303 303 303 303 302 302
314 312 313 315 316 316 315 315 316 317 316 314 313 313 313 314 314 314 314 314 314 316 319 319 317 320 320 317 317 317 316 316 313 311 310 309 308 307 306 305 304 303 302 301 301 300 300 300 299 299 299 298 298 299 299 299 299 299 299 298 298 298 299 299 300 301 302 303 303 303 304 304 305 305 305 305 305 304 304 303 303 302 302 302 301 301
312 308 309 313 315 314 312 310 312 314 314 312 313 313 314 315 314 313 313 313 316 319 320 318 318 319 320 317 316 316 314 315 313 311 310 309 307 306 305 304 303 302 301 301 300 300 300 299 299 299 298 298 298 298 298 298 298 298 298 298 298 298 297 298 298 299 300 301 301 302 302 303 303 303 304 304 304 304 304 303 303 302 302 301 301 301
313 310 310 312 312 312 312 311 310 310 310 312 313 312 315 317 315 314 314 314 318 322 319 317 318 319 319 316 315 315 314 313 313 311 310 308 306 305 303 302 302 301 300 300 299 299 299 299 298 298 298 297 297 297 297 297 297 297 297 297 297 297 297 297 297 297 298 298 299 299 300 301 301 302 302 302 303 303 303 303 303 302 302 301 301 300
316 315 313 313 311 311 312 313 312 310 310 311 312 312 316 319 319 319 319 318 320 321 316 315 317 318 318 316 315 316 314 312 312 311 310 308 306 304 303 302 301 300 300 299 299 298 298 298 298 297 297 297 296 296 296 296 296 296 296 296 296 296 296 297 296 296 296 296 297 297 297 298 299 299 300 301 301 302 302 302 302 302 302 301 301 300
318 318 315 315 313 311 312 314 315 314 312 311 313 315 317 320 322 323 322 320 321 319 314 313 316 317 316 316 317 316 312 310 310 309 308 306 304 303 302 301 300 299 299 299 298 298 297 298 298 297 297 296 296 296 296 295 295 295 295 295 295 296 296 296 296 296 296 296 296 295 296 296 297 297 298 298 299 300 300 300 301 301 301 301 301 301
318 318 317 317 316 313 312 314 318 318 315 314 314 316 318 319 321 322 321 321 321 319 315 314 316 317 316 315 315 313 309 308 308 306 305 304 303 302 301 300 299 299 298 298 298 297 297 297 297 297 296 296 296 295 295 295 295 295 295 294 294 295 295 295 295 295 295 295 295 295 295 295 295 296 296 297 297 297 298 298 299 299 299 300 300 300
318 318 318 316 313 312 314 315 316 317 317 316 314 315 317 318 319 320 321 321 321 320 318 316 317 316 315 314 312 310 308 307 306 305 304 303 302 301 300 299 298 298 297 297 297 296 296 297 296 296 296 295 295 294 294 294 294 294 294 294 294 294 294 294 294 294 294 294 294 294 294 294 294 294 295 295 295 295 296 296 297 297 297 298 298 298
316 317 318 315 312 311 312 313 314 315 317 314 313 316 315 315 317 319 320 319 319 319 318 317 316 315 315 315 312 309 308 307 305 305 304 302 302 301 300 298 297 297 296 296 295 295 295 296 296 295 295 295 294 294 294 293 293 293 293 293 293 293 293 293 293 293 292 292 292 292 292 293 293 294 294 294 294 294 294 295 295 295 296 296 296 297
318 318 318 317 316 312 307 309 312 312 314 314 314 315 314 314 315 315 317 318 318 319 318 316 316 314 315 316 313 310 309 307 305 304 303 302 301 300 299 298 297 296 296 295 294 294 294 294 294 294 294 294 294 294 293 293 293 292 292 292 292 292 292 292 292 292 292 292 292 291 291 291 291 292 292 293 293 293 294 294 294 294 294 295 295 295
317 317 317 317 318 313 307 309 312 312 312 312 312 312 313 316 316 315 317 318 318 319 318 317 316 316 315 316 314 312 310 307 305 304 303 302 301 300 298 297 296 296 295 294 294 293 293 293 293 293 293 293 293 293 293 292 292 292 291 291 291 291 291 291 292 292 292 292 292 292 291 290 290 291 291 291 292 292 293 293 293 293 293 293 293 294
315 317 318 316 315 313 310 311 315 314 311 309 309 311 312 314 315 315 317 317 318 319 319 319 317 316 316 315 314 313 310 307 306 305 303 301 300 299 298 297 296 295 294 294 293 293 293 293 292 292 292 293 292 292 292 291 291 290 290 290 290 290 290 290 291 291 291 291 291 291 291 290 290 290 290 291 291 291 291 291 292 292 292 292 293 293
314 316 318 316 315 315 314 314 315 314 313 312 311 312 312 313 313 315 315 315 317 318 319 320 319 317 315 314 312 311 309 308 307 305 303 301 299 298 297 297 296 295 294 294 293 293 293 292 292 292 292 293 293 292 291 291 291 291 290 290 289 289 289 289 289 289 289 290 290 290 290 289 289 289 289 290 290 290 290 290 291 291 291 292 292 292
315 316 317 317 316 316 316 315 315 315 315 315 314 313 314 314 314 316 316 316 316 316 317 318 318 317 313 311 310 309 308 307 306 304 302 300 298 297 296 295 295 294 294 293 293 292 292 292 292 292 292 293 293 293 292 292 291 291 291 290 289 289 289 289 289 289 289 289 289 289 289 288 288 288 288 288 289 289 289 289 290 290 290 290 291 291
314 315 316 316 316 315 315 314 314 315 314 314 314 314 313 314 314 316 316 316 315 316 317 316 317 318 312 308 308 308 306 305 304 303 301 299 298 297 295 295 294 294 293 293 293 293 293 293 293 292 293 293 293 293 293 292 292 291 291 290 290 290 289 289 289 289 289 289 288 288 288 288 287 287 286 287 287 287 287 288 288 288 288 288 289 289
313 313 315 315 314 313 312 313 314 314 314 314 314 314 314 314 314 313 313 314 314 315 316 315 316 318 313 307 306 305 304 303 303 302 301 299 297 296 295 295 294 294 293 293 293 293 293 293 293 293 293 293 293 293 293 293 292 291 291 290 290 289 289 289 289 289 289 289 288 289 288 288 287 287 286 286 286 286 286 286 286 286 287 287 287 287
312 313 315 315 315 315 313 313 314 314 313 313 313 313 314 313 313 313 312 313 314 314 315 315 316 316 312 307 306 305 303 303 302 301 300 299 297 296 295 295 294 293 293 292 292 292 292 292 292 292 292 292 292 292 292 292 292 291 290 290 289 289 288 288 289 289 289 289 288 289 289 288 288 287 286 286 286 286 285 285 285 285 285 286 286 286
311 313 314 313 315 315 314 313 313 313 313 313 312 312 312 312 313 313 312 314 315 315 314 314 314 313 311 309 308 307 305 303 302 300 299 298 297 296 295 295 293 292 292 291 292 292 291 291 291 291 291 291 291 291 291 292 291 291 290 290 289 289 288 288 288 288 288 288 288 288 288 288 288 288 287 286 286 286 285 285 284 284 284 284 285 285
310 311 312 312 312 312 311 311 310 311 311 311 311 311 311 312 313 312 311 312 313 312 312 312 312 312 311 309 308 308 307 305 302 300 299 298 297 296 295 294 293 292 292 291 291 291 291 291 291 291 291 291 290 290 290 290 291 291 290 290 289 289 288 287 287 287 287 287 288 287 288 288 288 288 288 287 287 286 286 285 284 284 284 284 284 284
310 309 310 311 311 310 309 309 309 309 309 309 309 310 309 310 311 311 310 310 309 309 309 309 308 309 309 307 306 307 307 306 304 302 300 298 297 296 294 294 293 292 292 291 291 291 291 291 291 291 291 290 290 290 290 290 290 290 290 289 289 289 288 287 287 287 287 287 287 287 287 287 287 287 287 287 286 286 286 286 285 284 284 284 284 284
309 308 308 308 308 308 307 307 307 306 307 306 307 307 306 307 307 308 308 307 306 307 307 306 305 306 305 304 304 304 304 304 303 301 298 297 296 295 294 293 293 293 292 291 291 291 290 290 290 291 290 290 290 290 289 289 290 290 290 289 289 288 288 287 286 286 286 286 286 286 286 286 286 286 286 286 285 285 286 286 286 285 284 284 283 284
306 305 305 306 306 306 306 305 305 305 305 305 304 304 304 304 304 305 305 304 304 304 304 303 304 303 303 302 302 302 302 300 299 297 296 295 295 295 294 294 293 293 292 291 290 290 290 290 290 291 290 290 290 290 290 289 289 289 290 289 288 288 288 286 286 285 286 286 286 285 285 285 285 285 285 285 284 284 285 286 286 285 284 284 284 284
304 304 304 304 304 305 305 305 305 305 304 304 304 304 304 304 304 304 303 303 303 303 303 303 303 303 302 301 299 298 298 297 296 295 295 294 294 293 293 293 293 293 293 292 291 290 290 290 290 291 290 290 290 290 289 289 289 289 289 289 288 288 287 286 285 285 285 285 285 285 285 284 284 284 284 283 283 283 283 284 285 285 284 283 283 283
304 304 304 303 304 305 304 304 303 302 301 302 302 302 302 302 303 302 302 302 302 302 303 303 303 302 301 299 297 296 295 294 294 294 293 293 293 292 291 292 292 292 293 292 291 290 290 290 290 290 290 290 289 289 289 289 289 289 289 288 288 287 287 286 285 285 285 285 284 284 284 283 283 283 283 283 282 282 282 282 283 284 283 283 283 282
303 303 302 303 303 304 303 302 301 299 300 300 301 300 300 301 301 301 301 301 301 302 302 302 301 300 299 298 298 296 294 292 293 292 292 291 291 291 291 291 291 291 292 292 291 290 290 290 290 290 290 290 289 289 289 289 288 288 288 288 287 287 286 285 285 285 284 284 284 284 283 283 283 283 283 282 282 281 281 281 282 283 282 282 282 281
302 302 301 301 302 302 301 300 298 299 300 301 300 299 299 299 299 299 299 299 299 299 299 299 299 298 297 295 295 294 292 291 291 291 291 291 291 291 291 291 291 291 291 292 292 291 290 290 290 290 290 290 289 289 289 288 288 288 288 287 287 286 286 285 284 284 284 283 283 283 283 282 282 282 282 282 281 281 280 280 281 282 282 281 280 280
300 300 300 300 301 300 300 299 299 300 300 298 297 298 298 297 297 297 297 297 297 298 298 298 298 298 296 293 292 291 290 290 290 290 290 291 291 291 291 290 290 290 290 291 292 291 290 290 290 289 289 289 289 289 289 288 288 287 287 286 286 285 285 284 284 284 283 283 283 282 282 282 282 282 281 281 281 280 280 279 279 280 281 280 279 279
299 299 299 298 298 299 299 299 300 300 297 295 296 296 296 296 296 296 296 297 296 297 298 298 298 298 296 292 290 290 290 290 290 290 291 291 291 291 290 290 290 290 290 291 291 291 291 290 290 289 289 289 288 288 287 287 286 286 285 285 284 283 283 283 283 283 283 282 282 282 282 281 281 281 281 281 280 279 279 278 278 279 279 278 278 277
298 298 298 298 298 298 298 298 299 299 297 296 296 296 296 296 295 295 297 297 297 296 297 297 298 296 293 291 290 290 291 291 290 291 291 291 292 292 290 290 290 290 290 290 290 291 291 290 290 289 288 288 287 286 286 285 285 284 283 283 282 282 282 282 282 282 282 282 282 281 281 281 281 280 280 280 280 279 278 278 277 278 278 277 276 276
297 297 297 298 298 297 296 297 297 297 297 296 295 295 295 294 294 295 296 297 297 297 297 297 297 294 290 289 289 290 292 291 290 291 291 291 291 291 290 290 290 290 290 290 290 289 290 289 289 287 287 286 285 285 285 284 283 283 282 281 281 281 281 281 281 281 281 281 281 280 280 280 280 279 279 279 279 278 277 276 276 277 276 275 275 275
294 295 296 297 297 296 296 296 296 296 296 296 295 294 293 293 294 295 295 295 295 295 294 293 291 290 289 290 290 290 291 291 290 291 291 290 290 290 289 289 290 290 289 289 289 288 288 287 286 285 285 285 284 284 283 282 282 281 281 280 280 280 280 280 280 280 279 279 279 279 279 278 278 278 278 278 277 277 276 275 275 276 275 274 274 274
292 293 295 295 295 296 295 295 295 294 294 295 295 293 292 293 293 293 293 293 292 292 292 290 289 289 289 290 289 289 290 290 290 290 290 290 289 290 289 289 289 289 289 289 288 287 286 285 285 284 284 283 283 282 281 281 280 280 279 278 278 278 278 278 278 278 277 277 277 277 277 276 276 276 276 276 276 275 274 274 274 274 273 273 273 273
293 293 294 294 294 295 295 295 294 294 294 294 294 293 293 293 293 292 292 292 292 291 291 290 290 289 289 289 289 289 289 290 290 290 290 289 289 289 289 289 289 289 288 288 286 285 284 284 283 282 282 281 281 280 279 279 278 277 277 276 276 276 276 276 276 275 275 275 275 275 275 274 274 274 274 274 273 273 273 273 273 272 272 272 272 271
292 292 293 293 294 294 294 294 294 294 294 294 294 293 293 292 292 292 291 291 291 291 290 290 290 289 289 289 289 289 289 289 289 289 289 289 289 289 289 289 288 288 287 286 285 284 283 282 282 281 280 279 278 277 277 276 275 275 274 274 274 274 274 274 273 273 273 273 273 273 272 271 271 271 271 271 271 271 271 271 271 271 271 270 271 270
292 292 292 292 293 293 293 294 293 293 294 294 293 292 292 293 293 292 291 291 291 291 290 290 290 289 289 289 289 289 289 289 289 289 289 289 289 289 289 288 287 286 285 284 283 282 281 280 279 279 278 277 276 275 274 273 273 273 272 272 272 272 271 271 270 270 270 270 270 269 268 268 268 268 268 268 269 269 269 269 269 269 269 269 269 269
291 291 291 291 292 292 292 293 294 293 292 293 292 291 292 293 293 292 292 292 292 291 290 290 290 289 289 289 289 289 288 288 288 288 288 288 288 288 287 286 285 284 283 283 282 280 279 277 277 276 275 274 273 273 272 271 271 271 270 270 270 269 269 268 267 267 267 267 266 265 265 265 265 265 265 266 266 266 267 267 267 268 268 268 268 268
292 292 292 291 292 292 291 292 293 292 292 292 292 292 292 292 292 292 292 291 291 291 290 290 289 289 289 289 289 288 288 288 288 288 288 288 287 286 285 284 284 283 282 281 280 278 276 274 274 273 272 272 271 270 270 269 269 268 268 268 267 267 266 266 265 265 264 264 264 263 263 263 263 263 264 264 264 265 265 265 266 266 267 267 267 267
292 292 292 291 291 291 291 291 291 291 291 291 292 292 292 292 292 292 291 291 291 290 290 290 289 289 289 288 288 288 288 288 288 287 287 286 285 284 284 283 282 281 280 278 277 275 273 272 271 271 270 270 269 268 268 267 267 266 266 266 266 265 265 264 263 263 263 263 263 263 263 263 263 263 263 263 263 264 264 264 265 265 265 266 266 267
291 291 291 291 291 290 290 291 291 291 291 291 291 292 292 292 291 291 291 290 290 290 290 289 289 288 288 288 287 287 287 287 286 286 285 284 283 282 282 281 280 279 277 276 274 273 271 270 269 269 268 268 267 267 266 266 265 265 265 265 264 264 263 263 263 262 262 262 262 262 262 262 262 262 263 263 263 263 263 264 264 264 265 265 265 266
291 291 291 290 290 290 290 290 290 290 291 291 291 291 291 291 291 291 291 290 290 290 289 288 287 287 287 286 286 286 285 285 284 283 283 282 281 281 280 279 278 276 275 273 272 271 269 268 268 267 266 266 266 265 265 265 264 264 264 264 263 263 263 262 262 262 262 262 262 262 262 262 262 262 263 263 263 263 263 263 263 264 264 264 264 265
291 291 291 290 290 290 290 290 290 290 290 291 291 291 291 291 291 291 290 290 290 289 288 286 285 285 285 285 284 283 283 283 282 281 280 280 279 279 278 277 275 274 272 271 270 269 268 267 266 266 265 265 265 264 264 264 264 263 263 263 263 262 262 262 262 262 262 262 261 262 262 262 262 262 262 263 263 263 263 263 263 263 264 264 264 264
291 291 291 290 290 290 290 290 290 290 290 290 291 291 291 290 290 290 290 290 289 288 287 285 284 282 282 282 281 281 280 280 280 279 278 277 277 276 275 274 272 271 270 269 268 267 266 265 265 264 264 264 264 264 264 263 263 263 263 262 262 262 261 261 261 261 261 261 261 261 262 262 262 262 262 262 263 263 263 263 263 264 264 264 265 265
291 291 291 291 290 291 290 291 291 291 290 291 291 291 291 290 290 290 289 289 288 286 285 284 283 282 280 280 279 278 278 278 278 276 275 275 275 274 273 271 270 269 268 267 267 266 265 264 264 263 263 263 263 263 263 263 263 262 262 262 262 262 261 261 261 261 261 261 261 261 261 261 261 262 262 262 262 262 263 263 263 263 264 265 265 265
Wind_Speed
4 6 6 7 9 11 12 12 14 15 15 16 12 12 14 13 13 13 14 14 9 6 9 12 14 15 15 15 16 17 17 19 19 16 14 14 11 7 4 4 6 6 7 10 14 17 18 19 19 18 18 18 16 16 14 12 9 6 3 1 2 3 5 7 8 9 10 11 11 12 13 13 13 14 15 16 17 17 15 17 21 25 27 29 32 35
3 7 8 10 14 15 12 9 10 12 14 15 12 12 12 11 12 14 15 15 7 3 7 11 13 16 16 18 19 17 16 16 15 15 14 11 8 5 4 6 7 8 9 12 15 17 20 21 22 20 19 20 19 19 18 17 14 10 7 4 1 1 4 6 7 7 8 9 9 9 10 10 10 10 12 13 13 14 14 16 19 22 24 27 30 33
5 9 11 14 15 14 11 7 9 12 13 12 10 10 10 9 12 13 11 6 2 1 7 12 13 13 16 20 20 16 12 12 13 15 11 7 6 5 5 7 9 10 11 13 14 16 20 22 23 22 21 21 20 19 20 19 17 15 13 9 6 3 0 2 5 6 6 6 7 7 6 6 6 6 7 8 8 9 10 13 17 19 21 24 28 31
6 7 10 14 13 12 12 9 9 11 10 9 8 8 9 10 10 9 5 1 2 6 9 12 11 11 14 15 13 9 7 10 12 8 5 7 7 7 10 10 11 12 12 13 14 15 18 21 23 24 22 21 20 20 20 20 19 17 16 14 10 6 4 3 2 3 4 4 4 5 6 6 6 6 5 5 7 8 10 12 16 20 22 24 26 29
13 7 2 7 9 10 12 10 10 10 8 9 9 9 11 11 12 11 9 8 10 9 6 8 9 8 5 5 5 2 5 11 5 8 12 11 10 11 13 13 13 13 13 14 15 15 16 19 21 22 22 21 21 21 21 21 19 18 18 17 14 11 9 7 4 3 3 3 2 3 6 7 7 8 7 6 7 9 12 14 15 18 21 23 25 27
13 6 2 4 7 7 8 10 12 9 7 8 9 10 12 12 13 13 11 9 8 5 1 4 8 5 1 6 7 3 9 7 7 14 13 12 12 12 12 12 12 12 13 14 14 14 14 17 19 21 23 24 24 24 22 20 19 20 21 19 17 14 13 12 9 5 3 2 3 3 4 5 5 7 7 7 8 8 10 12 12 14 17 20 23 25
6 1 2 4 7 6 7 10 12 10 7 7 3 3 7 9 10 10 8 6 5 6 1 2 5 6 5 8 5 5 12 2 13 14 12 12 11 11 11 10 11 11 12 13 13 14 14 16 19 21 24 25 24 23 20 17 19 22 24 22 20 17 16 15 12 9 6 4 4 4 4 5 5 6 6 5 6 6 7 7 8 10 13 16 20 22
4 3 1 3 6 7 7 8 8 8 7 4 3 4 4 5 7 6 6 5 5 8 7 4 6 7 7 4 4 8 11 3 13 12 12 12 10 11 11 11 11 11 11 11 12 13 14 16 19 20 22 22 20 18 17 18 20 25 27 25 22 19 18 17 15 12 9 8 6 5 5 6 6 7 7 7 5 5 5 5 6 8 9 13 17 19
3 4 3 5 6 6 6 3 1 5 7 1 5 4 4 4 5 4 5 7 6 8 7 6 7 6 7 2 4 6 6 5 11 12 12 11 10 10 10 12 11 11 11 12 12 13 14 16 17 17 18 19 19 18 18 19 22 26 28 27 25 21 20 20 18 15 12 10 8 7 7 7 7 7 8 8 7 6 5 5 6 7 8 10 14 17
1 1 1 4 5 5 3 3 4 3 4 1 3 1 1 2 4 4 6 7 6 8 8 6 9 5 7 3 3 2 3 5 9 11 11 11 10 9 10 11 10 9 10 11 11 12 13 14 15 15 18 20 20 18 18 20 24 28 28 28 28 25 22 22 21 18 16 13 11 9 9 9 9 9 9 8 8 7 7 6 6 7 8 9 11 14
3 3 2 4 6 2 3 4 4 1 0 1 1 3 4 6 5 5 6 4 5 8 8 6 12 8 5 2 2 1 1 2 7 10 10 11 10 9 9 9 9 8 8 10 10 11 12 14 15 16 17 18 17 18 20 24 27 29 28 27 28 27 25 24 23 21 18 16 14 12 11 10 9 9 9 9 10 10 9 9 8 8 8 9 10 12
6 4 3 3 3 2 3 2 1 3 1 2 2 4 5 5 4 4 4 3 6 7 4 1 8 10 7 2 1 3 6 5 4 8 11 12 10 9 9 8 8 8 9 10 9 10 11 12 13 14 14 15 17 21 24 26 26 26 26 26 26 27 27 26 25 24 22 19 17 15 14 12 11 10 10 10 10 11 11 11 10 10 9 9 10 11
5 7 7 4 3 5 5 3 2 3 3 3 3 3 5 5 4 5 5 4 7 4 2 4 2 7 9 6 8 6 7 8 5 8 11 12 11 10 9 8 7 7 9 9 8 8 8 9 11 13 13 15 18 22 24 24 24 23 24 24 24 25 25 24 25 24 23 22 21 18 16 14 12 11 10 10 10 11 11 12 12 12 11 11 11 11
3 2 7 6 2 6 9 5 3 3 4 6 4 4 4 5 7 8 7 7 8 3 3 3 1 4 8 7 10 8 7 11 9 11 12 12 12 11 10 8 7 8 9 8 8 8 7 9 11 12 12 15 19 21 21 21 21 20 21 21 22 22 24 25 24 24 23 22 22 20 18 16 13 12 11 11 11 11 11 12 13 13 13 13 13 13
6 4 5 6 2 7 12 8 4 2 3 7 5 4 5 6 7 7 6 7 9 6 2 2 1 4 5 2 3 6 12 12 11 13 13 11 11 10 9 8 7 8 8 7 8 8 9 9 10 10 12 15 18 20 19 19 19 19 18 19 19 20 22 23 24 24 22 21 22 22 21 19 15 13 12 10 11 11 12 12 13 14 14 14 15 15
7 7 2 3 1 5 9 5 2 2 3 4 2 3 5 4 5 6 6 7 8 8 6 5 4 5 6 2 9 12 13 12 11 12 11 10 9 8 7 8 7 7 7 6 7 7 8 8 9 10 13 15 17 18 19 19 18 18 17 17 18 19 20 21 21 22 22 22 23 24 24 23 20 18 15 12 11 11 11 11 12 13 14 15 16 17
6 6 3 3 1 3 1 2 1 2 3 1 2 3 2 2 3 5 7 7 7 9 7 6 8 8 8 5 9 13 11 11 10 10 10 9 8 8 7 7 6 6 6 6 5 5 6 8 11 13 15 16 16 16 16 16 16 15 15 16 17 19 20 21 21 21 22 23 24 25 26 24 23 22 20 18 16 15 13 12 12 12 14 14 15 17
4 7 3 3 5 1 2 4 2 2 1 1 2 1 2 1 1 3 7 7 8 11 7 7 12 11 9 6 5 11 10 9 8 8 9 8 7 7 7 6 5 5 5 5 5 5 7 10 13 14 15 15 15 14 13 13 12 12 13 15 15 17 18 18 18 19 20 22 22 23 25 25 24 22 22 23 21 19 17 16 14 14 15 15 15 17
1 6 5 3 3 1 3 3 4 2 1 1 1 2 1 3 4 5 6 5 8 11 8 9 14 11 9 9 4 6 11 10 8 7 7 6 6 6 6 6 5 5 4 4 5 6 7 10 12 13 13 13 13 13 12 11 12 12 13 14 13 13 13 13 13 13 14 15 16 17 19 21 22 22 23 23 22 21 21 20 18 17 16 15 16 16
0 4 4 1 2 1 2 3 5 3 1 1 2 2 2 2 4 5 4 2 6 9 8 8 10 8 7 6 4 3 11 11 8 7 5 5 5 4 4 4 4 4 3 4 4 5 5 7 8 8 9 9 9 10 10 10 12 14 15 15 15 14 15 14 13 13 12 11 11 12 14 16 19 20 21 21 21 21 21 20 20 20 18 17 16 16
0 4 6 2 1 2 3 4 5 6 5 3 4 5 4 3 2 3 3 3 5 8 7 8 9 7 4 3 5 8 9 8 8 8 6 5 5 4 4 3 3 3 3 3 3 3 3 3 4 4 4 4 4 5 6 7 8 10 12 13 14 15 16 17 17 17 16 16 15 15 15 17 19 20 21 20 19 19 19 19 18 18 19 18 17 17
1 4 7 6 5 6 8 7 6 8 8 6 5 6 7 5 3 5 7 6 5 6 6 8 10 7 1 4 4 7 7 6 7 8 6 5 5 4 3 3 3 3 3 3 2 2 1 2 2 3 3 3 3 3 5 6 6 7 9 11 13 14 16 18 19 20 19 19 20 19 19 19 20 21 22 21 19 19 19 18 18 18 20 19 19 18
0 3 7 8 8 10 14 13 5 3 6 6 6 8 9 7 5 8 9 6 5 6 4 6 10 6 1 3 4 6 7 7 7 7 7 5 4 4 3 2 2 1 1 1 2 1 1 2 2 2 2 3 3 4 5 6 7 8 9 11 12 14 16 17 19 20 19 19 20 19 20 21 21 21 22 21 20 19 19 18 18 20 21 21 21 21
1 3 6 7 7 9 14 11 1 3 2 5 6 6 5 5 5 6 6 5 5 5 6 8 10 4 2 3 4 6 6 6 5 5 6 6 4 4 3 2 2 1 1 1 1 1 1 1 1 2 3 4 5 6 8 8 9 10 11 12 12 14 15 15 16 17 17 18 18 18 18 19 20 21 23 22 22 22 21 20 20 20 20 20 22 23
2 4 5 5 5 6 8 8 2 2 1 1 3 3 3 4 6 5 4 4 4 6 9 9 7 3 1 1 3 5 6 6 5 5 5 5 5 5 4 3 2 2 2 3 3 4 4 4 5 5 6 7 8 9 10 10 11 12 12 13 12 13 14 14 14 15 15 16 17 17 17 18 18 19 21 22 23 24 24 24 23 23 22 21 21 23
4 5 4 5 6 6 7 7 4 1 1 1 2 4 5 7 7 5 5 6 5 5 7 7 6 4 1 3 6 6 7 6 5 5 5 5 5 4 3 2 1 1 2 3 4 5 5 5 7 8 9 9 10 10 11 11 12 12 13 14 14 14 15 16 15 15 15 14 15 15 15 16 17 17 17 18 20 22 24 26 26 27 26 23 22 22
4 5 7 10 10 10 10 10 9 8 6 7 8 9 11 10 9 7 7 8 7 6 6 8 10 10 9 12 15 8 5 6 6 7 6 5 5 4 3 3 2 2 1 2 2 3 4 4 6 7 9 9 10 11 11 11 11 12 12 13 14 14 15 17 17 17 16 14 14 14 14 15 16 16 15 16 17 19 21 23 26 27 27 26 26 24
4 6 10 12 13 14 15 16 16 15 14 15 14 14 15 14 12 10 11 12 11 10 9 9 11 14 13 14 17 13 7 6 6 7 6 5 5 4 3 4 4 5 4 4 4 4 4 4 5 5 7 8 8 9 10 10 11 11 11 12 12 12 12 14 15 16 16 15 14 14 14 14 15 15 15 17 19 20 20 21 24 26 27 28 28 27
4 8 11 12 14 16 17 18 18 17 16 15 16 17 17 18 17 16 15 15 13 12 13 15 18 19 16 17 20 17 8 2 3 5 3 2 3 4 4 5 6 6 5 5 5 4 4 5 5 5 7 7 8 9 9 9 10 10 11 12 13 13 13 14 15 15 15 15 15 16 16 17 18 16 15 17 19 21 21 21 23 25 26 28 28 28
4 7 8 9 11 13 15 17 17 16 16 17 18 20 20 22 22 20 18 19 19 18 20 22 24 22 19 19 17 8 2 4 4 3 2 2 3 4 4 5 6 7 6 5 5 5 5 5 6 7 8 8 8 9 9 10 10 10 11 12 13 13 14 16 20 20 18 16 16 17 18 19 21 20 19 20 19 21 22 22 23 24 25 28 28 27
6 6 1 2 7 10 13 15 13 12 13 14 15 17 20 22 22 19 19 20 20 20 21 23 23 21 15 7 2 4 5 3 2 2 2 2 2 3 5 6 7 7 7 6 5 5 5 6 6 7 8 8 9 9 10 10 10 10 11 12 12 12 12 15 19 21 19 19 20 21 21 22 22 22 25 26 25 25 25 24 24 25 26 28 28 28
5 5 1 1 7 9 9 11 12 9 9 12 14 17 20 20 17 17 17 17 17 18 20 20 18 13 4 3 4 3 3 2 0 2 2 3 2 4 6 7 7 8 8 7 6 6 6 6 6 7 8 9 10 10 10 10 10 11 12 12 13 13 12 13 16 17 18 20 21 23 25 26 25 25 27 28 28 28 28 27 27 27 27 28 28 29
3 4 3 4 6 5 7 9 7 4 6 9 11 14 17 17 16 17 17 18 20 19 16 13 9 3 1 2 1 1 2 2 3 3 3 4 4 5 7 8 8 8 8 8 8 7 7 7 7 8 9 10 10 11 11 10 11 12 12 12 13 13 13 13 15 16 19 20 21 23 25 26 27 28 29 29 29 30 29 29 28 28 28 29 29 29
5 5 6 6 4 5 6 3 1 3 8 7 3 5 11 13 13 15 16 17 19 14 7 4 3 2 3 2 1 1 2 4 5 5 5 5 4 5 7 8 8 9 10 10 9 8 7 7 9 10 11 11 12 12 11 11 12 13 13 12 12 12 14 15 16 17 20 23 23 24 26 26 27 29 30 30 31 31 31 30 30 28 27 28 30 30
8 8 8 7 6 7 5 2 4 8 7 2 2 2 6 6 8 13 16 17 17 12 7 7 7 4 4 3 4 3 4 6 6 7 7 6 5 6 7 8 8 10 10 10 10 10 9 10 11 12 13 14 13 12 12 12 12 13 13 12 13 16 18 20 21 20 21 23 25 25 25 26 27 28 29 30 31 32 33 33 32 30 29 29 30 30
9 8 7 7 8 8 7 8 10 7 2 2 5 5 5 5 7 12 13 11 11 11 10 9 8 4 3 2 4 4 5 6 7 8 9 9 7 6 6 7 8 9 10 11 12 13 14 15 15 15 15 13 12 12 12 13 13 13 13 14 17 20 22 23 24 24 23 24 26 26 26 26 26 28 29 29 30 31 33 34 34 33 33 33 32 31
10 8 7 7 8 8 9 11 11 9 8 9 9 6 3 4 4 6 7 5 3 5 6 6 5 4 3 3 5 5 5 5 6 7 9 8 5 5 5 6 7 9 11 13 15 17 20 21 18 15 13 12 12 12 13 14 13 13 15 19 21 22 24 24 24 23 24 25 25 26 26 26 26 28 28 28 29 31 32 33 34 34 34 35 34 33
9 10 8 8 7 7 9 10 10 11 11 7 3 2 4 4 4 3 6 5 2 3 3 2 3 3 2 4 7 5 3 4 6 7 6 4 1 3 5 7 9 12 13 15 18 19 19 17 15 14 14 14 15 15 15 16 16 16 18 20 21 22 23 23 22 22 23 24 24 26 27 27 27 28 29 30 31 31 32 33 34 33 33 33 33 35
5 7 8 9 8 8 10 10 9 9 6 1 1 3 5 4 4 3 7 6 2 3 4 6 4 1 2 6 6 4 4 5 6 6 5 5 5 5 7 8 11 14 15 17 17 15 14 14 15 15 15 16 17 18 18 19 18 18 18 20 20 21 21 20 21 22 23 24 25 26 27 28 29 30 31 31 32 33 33 34 34 32 30 30 30 31
3 4 6 8 8 9 11 9 8 7 4 1 1 3 4 2 3 3 9 7 1 4 5 4 1 4 5 5 6 5 6 6 6 7 7 8 8 8 9 11 12 15 16 14 12 13 14 14 14 15 16 16 18 18 18 18 17 18 19 20 21 20 19 21 22 23 25 26 26 27 29 30 31 32 33 34 34 35 34 34 33 32 31 32 30 29
3 3 6 8 8 10 11 9 7 7 5 4 3 2 6 3 1 5 8 3 4 6 5 4 4 6 6 6 6 5 6 7 8 9 9 9 9 9 12 14 14 14 12 10 10 12 14 13 12 14 15 15 16 17 17 17 18 19 20 21 21 21 21 22 24 25 27 28 29 30 31 32 32 34 35 36 36 37 36 35 34 34 34 34 33 31
3 3 5 7 8 8 9 10 9 7 5 4 4 2 6 3 5 6 2 3 7 7 5 6 8 7 7 7 6 6 8 9 10 10 10 10 10 11 12 12 11 9 9 9 10 11 11 12 13 14 13 14 16 17 17 18 20 21 21 21 22 23 24 25 26 28 29 30 31 33 34 35 35 35 36 36 36 36 37 36 36 36 36 35 34 35
4 4 5 7 7 7 7 8 8 7 3 4 4 3 5 6 6 4 0 4 7 5 4 6 7 6 6 7 8 8 9 10 10 11 10 10 10 11 9 7 7 8 9 10 10 10 11 12 13 14 13 14 17 17 17 21 24 23 21 23 24 25 26 27 28 30 30 31 33 35 36 37 37 36 35 35 35 35 37 38 37 36 36 34 34 36
4 5 6 6 5 6 7 7 6 6 3 5 5 4 6 6 5 4 3 4 5 5 5 5 6 6 6 7 9 9 10 10 11 11 11 11 10 8 6 6 7 9 10 10 10 10 11 12 14 16 17 15 16 18 19 21 24 23 23 25 26 26 27 28 29 30 29 30 33 35 35 36 36 35 35 35 35 35 37 38 38 36 35 34 34 34
6 8 9 8 6 7 9 8 6 5 3 6 7 7 8 9 9 7 7 7 7 6 6 5 7 8 7 7 9 9 9 11 11 11 10 9 7 5 5 7 8 9 10 10 9 10 12 14 15 18 20 18 17 19 20 19 20 23 26 27 26 26 26 28 29 30 31 33 34 34 34 35 35 35 35 34 33 33 34 34 33 32 32 32 31 31
9 10 9 7 8 9 10 10 10 10 10 9 9 9 10 11 11 9 9 9 8 7 6 6 7 8 7 7 7 8 9 10 10 9 7 6 5 5 6 8 8 8 9 9 9 12 15 16 16 17 20 20 18 18 19 18 17 22 26 27 26 25 27 29 31 32 32 33 33 33 33 35 34 33 32 32 30 30 30 30 29 29 29 28 28 29
11 13 10 8 9 9 9 9 11 13 14 13 11 10 11 12 11 10 9 9 8 8 8 7 7 7 6 6 7 8 9 8 7 7 5 5 6 6 6 8 8 8 8 8 10 13 15 15 16 17 19 20 18 17 19 20 20 23 26 27 27 28 29 30 31 32 32 31 32 32 32 31 31 30 30 29 28 28 28 28 28 28 28 27 27 28
8 10 9 10 12 11 10 12 14 15 16 14 12 11 10 11 12 12 11 9 9 8 5 3 4 5 5 5 5 6 7 6 5 6 5 5 5 5 6 7 7 7 8 9 10 13 14 14 15 17 19 20 20 19 22 24 26 26 26 27 29 31 32 31 29 29 30 31 31 31 30 29 29 30 29 28 27 27 27 27 27 28 28 28 28 28
7 7 7 8 11 11 12 15 16 15 15 15 15 13 12 12 13 13 12 11 9 6 3 4 3 3 4 4 3 3 5 5 4 5 5 4 5 5 6 7 8 8 9 10 10 12 13 14 15 17 18 20 21 22 24 27 28 28 27 28 30 32 32 31 29 28 29 30 29 29 28 28 28 29 29 29 28 28 29 28 29 31 31 31 31 32
10 10 9 8 9 10 11 13 13 11 11 13 13 12 12 12 12 12 10 9 8 6 5 5 5 4 3 2 2 2 4 4 3 3 4 4 4 5 6 8 9 9 10 12 12 12 12 13 16 18 19 21 22 23 25 28 29 30 30 31 31 31 31 30 29 29 29 28 28 28 27 28 29 29 29 30 30 30 31 30 30 32 34 34 34 35
11 12 11 9 10 11 11 13 12 9 10 12 13 13 12 9 9 10 9 8 6 4 4 5 5 5 5 4 3 3 3 4 3 3 3 4 5 6 7 7 9 11 13 14 13 12 13 15 17 18 20 21 21 23 26 29 32 33 33 32 32 31 30 29 28 28 28 27 27 28 28 29 29 29 29 29 30 30 31 30 30 30 33 35 37 37
Wind_Direction
191 213 202 221 240 251 253 244 249 262 275 285 289 282 280 282 279 281 282 285 306 316 288 290 294 297 301 296 286 280 277 276 280 284 280 274 280 296 337 2 1 13 30 41 42 38 32 25 22 23 20 18 20 21 21 23 22 19 6 280 223 214 207 206 207 206 208 211 215 217 219 221 221 218 218 219 220 219 217 218 224 228 228 227 225 224
194 224 223 231 245 259 272 280 277 275 278 279 280 278 277 277 277 279 283 290 319 322 283 295 297 299 302 292 283 279 278 279 280 276 269 278 306 342 11 12 26 45 53 51 45 37 32 27 24 24 23 21 21 20 21 24 23 23 23 20 13 175 193 204 208 210 214 219 222 227 231 233 232 227 223 224 224 222 220 222 226 229 230 229 228 227
213 228 232 236 248 260 268 281 281 273 274 274 271 274 274 275 280 283 282 291 8 292 290 304 303 297 288 281 282 283 283 279 268 266 277 316 351 17 31 39 57 61 55 47 38 30 27 25 24 23 22 20 17 17 20 24 27 28 27 25 22 26 173 219 216 216 222 228 230 236 246 247 241 240 233 230 231 224 219 223 229 232 232 232 232 230
238 238 231 238 251 258 258 260 264 267 265 258 259 267 270 273 279 286 285 317 315 281 289 301 298 286 274 265 270 276 269 265 265 279 352 30 40 58 61 61 63 60 51 43 34 25 21 22 24 22 18 17 15 16 19 22 27 30 27 24 23 25 20 356 279 242 238 233 221 217 232 237 231 238 238 230 230 228 228 230 234 237 238 236 235 233
256 269 225 237 249 251 258 261 257 260 262 254 252 254 263 271 277 286 297 311 304 283 282 303 294 289 285 258 259 251 243 260 285 50 57 62 66 73 71 63 60 56 50 43 34 25 21 21 23 22 19 19 18 17 17 19 26 32 30 27 28 33 29 17 4 318 276 246 220 203 228 236 233 240 242 237 234 231 236 237 237 240 240 238 237 235
264 277 115 212 236 237 249 258 253 252 268 266 253 250 261 275 282 289 299 311 306 280 91 10 313 306 336 273 279 282 267 270 73 73 69 69 65 66 65 58 55 54 51 48 39 30 25 23 22 23 23 23 21 16 13 14 25 36 36 32 34 38 34 23 16 358 333 294 275 256 255 260 255 254 250 246 244 235 238 239 235 238 239 238 238 236
263 275 103 223 238 234 236 252 253 247 259 267 263 272 274 280 284 290 300 306 296 286 335 50 303 288 282 279 261 248 269 274 85 78 79 78 71 67 61 54 49 50 53 49 43 36 30 25 24 24 24 25 23 14 8 12 26 39 41 37 36 39 35 27 21 16 4 349 326 306 294 292 290 287 286 284 271 254 249 245 234 232 234 239 239 235
208 198 117 216 231 232 230 250 251 226 240 270 19 7 325 301 295 299 302 286 278 294 287 218 227 267 294 296 192 239 266 123 93 84 87 82 77 78 71 64 54 47 52 49 42 36 30 29 27 26 25 26 24 15 12 20 29 39 41 39 38 38 36 29 26 26 18 10 0 345 330 314 308 306 304 310 309 285 266 255 240 232 231 238 241 238
137 187 191 186 208 228 226 264 338 198 232 311 44 4 348 332 308 304 292 281 282 295 285 204 193 259 293 281 190 247 261 140 106 98 102 90 80 82 76 72 64 54 55 54 50 39 31 32 29 29 29 27 26 21 20 27 34 41 41 39 39 37 34 30 27 28 25 21 14 3 355 342 331 326 316 312 311 304 287 266 249 241 238 238 242 242
75 141 226 200 210 239 227 29 33 216 239 35 70 356 332 265 268 271 266 278 282 273 273 219 185 241 297 273 204 225 218 162 122 108 108 99 88 78 72 71 67 63 59 55 56 49 40 35 29 28 30 28 27 23 23 32 39 42 40 38 38 36 33 30 28 28 28 25 22 16 9 358 346 337 329 323 316 311 300 284 269 253 248 243 239 240
223 103 14 240 232 250 88 67 27 11 353 43 294 284 277 249 241 251 248 264 274 263 280 234 189 211 294 284 188 155 103 106 118 126 120 105 96 80 71 66 58 57 58 54 51 47 43 39 32 29 29 28 27 26 29 34 38 40 38 37 37 36 34 32 30 29 28 26 25 20 12 3 356 346 337 329 322 318 311 300 290 274 261 251 242 238
220 193 221 220 217 184 120 129 79 77 107 224 261 287 294 269 231 235 224 206 259 266 315 18 182 210 247 240 203 123 106 87 110 138 131 115 106 89 75 65 55 48 53 54 45 37 35 33 33 30 29 28 29 31 32 33 36 38 37 36 37 37 36 34 33 32 30 27 24 18 14 8 2 355 346 337 329 323 317 308 300 292 280 266 252 242
220 214 205 182 180 198 197 202 171 153 181 209 237 252 279 284 257 255 248 234 260 263 86 78 152 229 248 253 254 230 119 99 97 116 123 119 109 95 79 66 60 53 52 52 47 41 32 27 29 26 24 26 30 33 32 31 33 34 34 35 38 39 38 38 38 37 36 33 27 20 15 10 4 359 353 343 336 331 324 316 311 304 295 287 275 257
272 213 179 177 190 193 196 214 228 209 183 190 211 218 236 275 274 271 275 267 268 268 109 102 92 258 266 264 247 230 103 90 91 92 98 104 100 94 87 76 64 58 54 49 46 44 37 31 28 23 23 27 32 34 32 32 32 32 32 33 36 38 39 42 43 42 41 39 35 32 25 17 10 4 360 352 344 338 330 324 317 312 306 299 294 284
278 288 178 176 159 166 190 224 271 320 190 198 207 222 237 259 267 270 278 270 274 292 291 199 195 263 283 356 90 108 94 90 90 87 86 88 89 90 88 80 66 59 55 49 46 41 36 32 26 25 29 33 34 33 32 31 29 30 31 30 33 35 37 40 42 42 42 40 39 38 35 30 23 14 6 359 352 343 334 328 320 314 309 304 300 296
266 278 130 109 28 168 191 229 309 327 247 207 173 225 247 262 259 265 275 275 287 298 281 238 236 272 278 137 107 98 94 92 86 87 89 85 87 88 81 73 64 59 53 48 46 40 35 31 27 29 33 36 36 33 31 29 27 28 26 25 30 32 33 34 36 38 40 41 40 39 39 37 33 30 23 12 1 351 339 330 322 315 310 308 305 300
262 272 94 90 266 184 190 342 14 275 275 126 144 223 264 322 290 276 274 273 275 273 268 258 258 269 269 222 126 100 92 96 94 90 90 87 87 85 77 71 67 62 55 48 45 38 30 29 29 30 31 33 32 30 29 25 23 25 23 24 27 28 30 31 32 35 38 40 40 38 38 37 34 33 32 28 20 10 358 341 330 324 319 315 311 303
265 275 238 219 246 167 41 340 274 261 311 154 191 272 346 317 277 262 266 268 261 259 257 253 260 268 273 259 133 119 116 111 106 99 96 96 91 85 82 79 72 68 62 53 46 33 26 27 27 27 27 27 26 24 22 16 16 22 25 27 29 28 28 27 28 31 33 35 35 34 35 34 32 31 32 33 29 22 15 3 349 338 329 320 312 304
277 276 263 259 277 130 95 294 245 186 43 227 248 341 318 264 257 241 249 259 256 261 261 247 255 261 258 265 255 167 146 127 118 113 106 101 96 92 91 85 74 68 57 45 39 29 26 26 22 21 19 18 20 18 16 16 19 26 28 28 30 29 25 23 24 26 27 29 29 28 29 30 30 29 29 30 28 25 22 15 7 357 342 327 316 308
29 268 271 66 49 100 130 227 232 209 120 101 267 267 230 261 275 260 265 281 255 260 268 256 253 254 256 286 324 126 135 135 137 128 114 104 99 94 89 83 67 59 47 32 31 26 25 23 15 11 5 3 11 13 13 18 24 28 30 30 31 30 27 25 25 25 25 24 23 22 22 23 25 25 25 25 24 22 19 16 13 8 358 347 334 323
229 252 264 240 158 256 231 223 244 260 251 213 225 231 217 216 263 281 272 244 247 259 264 264 260 254 273 357 59 100 114 126 133 130 126 114 104 92 83 75 56 50 40 32 35 27 19 10 354 343 335 335 348 0 5 11 19 24 26 28 29 27 25 25 24 24 23 21 21 20 19 20 21 21 21 21 20 18 14 11 9 5 3 358 351 342
259 251 262 264 260 259 263 269 277 275 272 268 254 247 254 257 260 272 261 233 227 251 256 262 264 256 303 18 60 91 89 94 110 119 122 115 110 99 79 66 54 42 31 25 19 5 347 330 317 311 310 314 323 340 356 6 13 16 18 20 20 20 18 17 16 16 16 17 17 17 17 18 19 19 19 19 16 12 8 6 2 359 0 360 357 353
258 252 258 264 260 260 273 284 291 271 270 274 268 264 268 266 248 254 266 266 257 264 269 263 261 255 69 42 59 81 82 83 91 105 116 119 115 106 97 85 82 63 40 348 303 281 275 284 286 295 315 336 347 353 359 4 9 9 11 12 12 13 11 8 7 7 6 7 8 10 12 13 13 14 15 16 14 9 6 3 359 358 358 357 357 357
111 251 258 264 265 272 276 275 303 65 277 255 256 265 270 275 279 276 278 289 284 276 280 268 259 260 55 48 68 90 98 103 111 124 131 136 136 135 142 135 110 85 73 53 357 1 322 313 329 344 0 7 4 3 4 6 8 8 9 9 8 8 5 1 360 358 356 356 355 358 2 4 6 7 8 8 6 5 4 3 0 358 355 353 354 356
285 265 272 281 281 287 276 257 220 74 35 258 279 300 310 298 303 307 281 274 264 237 243 258 264 258 96 114 147 145 148 151 151 149 149 152 158 159 154 138 106 57 35 24 17 13 7 8 6 3 9 9 6 6 3 1 2 2 3 4 3 3 1 359 356 352 349 348 346 347 349 351 354 357 359 360 358 356 357 357 358 358 357 353 350 351
276 269 276 283 275 272 267 263 271 306 88 66 275 263 266 262 266 288 290 274 263 232 232 255 274 278 245 228 230 202 170 165 158 156 167 171 169 171 166 159 143 77 24 359 358 356 352 352 352 355 357 357 359 0 358 357 357 355 355 355 354 353 352 353 352 350 347 343 341 340 338 340 341 342 346 349 350 349 349 350 351 351 353 351 348 347
279 268 258 258 258 261 266 272 287 295 284 280 276 268 268 264 259 268 268 259 269 285 273 260 264 274 275 271 272 263 180 179 187 178 180 179 171 178 183 184 197 215 244 286 303 306 316 321 327 336 338 340 344 345 346 348 348 348 348 346 345 344 344 345 346 345 343 339 337 334 333 333 331 329 329 332 335 337 340 342 343 344 345 345 344 343
268 267 261 257 255 259 267 272 278 281 278 279 281 278 276 275 269 260 255 261 277 287 275 265 269 274 276 278 284 290 279 243 208 179 181 181 173 178 190 203 220 227 228 235 247 256 270 283 293 304 311 318 323 325 330 333 334 337 337 335 335 334 334 337 338 338 337 334 332 330 329 327 325 321 320 323 326 326 326 328 332 335 337 338 338 338
262 268 269 270 269 269 273 276 276 277 279 278 277 274 274 274 269 263 263 269 274 269 267 277 280 279 281 282 282 288 299 288 155 145 149 153 167 190 209 223 232 231 233 242 251 257 262 268 278 286 292 299 304 309 315 317 318 321 321 323 325 325 327 331 332 332 331 329 328 328 327 326 323 318 315 318 321 322 320 318 319 324 327 330 332 332
253 267 270 277 278 274 272 272 274 276 277 274 271 270 271 269 266 267 272 275 272 268 268 273 274 273 276 279 281 294 37 93 112 121 140 170 200 220 230 244 250 247 246 256 269 277 276 276 281 283 285 289 294 300 305 306 306 307 308 310 313 315 321 326 328 328 327 324 323 323 323 324 322 318 315 315 317 319 318 315 313 315 318 322 323 323
255 266 303 335 282 270 266 268 272 277 278 277 275 271 267 265 266 269 272 273 272 269 265 264 265 269 273 282 339 71 89 95 110 143 193 222 230 249 263 266 265 261 259 263 277 287 284 283 285 285 286 289 291 294 296 296 297 297 296 297 301 305 311 318 321 322 319 318 318 317 318 319 318 315 313 313 314 316 317 315 311 309 312 315 316 316
264 271 336 317 269 263 263 269 275 286 288 278 267 260 258 260 263 264 263 264 265 265 264 263 266 274 282 82 91 114 112 87 249 255 287 290 280 283 285 285 285 281 274 270 277 284 282 281 281 281 284 285 286 286 285 286 289 288 288 291 296 298 301 306 310 310 309 309 310 311 312 314 314 312 309 309 309 311 314 314 309 305 306 310 310 311
242 264 285 276 265 261 261 271 287 310 289 265 250 247 250 254 258 258 257 256 255 258 265 270 273 279 126 115 145 155 99 25 317 312 317 305 299 293 286 286 288 288 283 276 276 278 280 279 279 280 282 279 276 274 273 275 277 278 281 286 291 293 293 294 297 298 300 302 302 303 305 307 308 307 305 304 304 306 308 309 306 301 300 304 305 305
235 244 263 266 264 266 269 290 21 240 253 258 228 224 249 259 263 263 262 262 261 266 279 280 261 169 151 136 77 48 0 333 321 315 302 288 285 282 284 290 293 295 293 284 279 278 280 281 282 284 284 283 282 280 276 276 276 278 282 285 289 293 291 288 288 288 293 296 295 294 297 299 298 298 298 298 300 302 303 305 303 298 295 300 302 301
241 245 256 259 259 267 273 264 237 239 245 267 87 183 239 261 267 264 265 267 270 275 278 275 271 228 160 101 62 17 333 318 307 301 292 281 268 268 282 296 304 308 306 298 289 284 281 285 291 294 294 297 300 299 295 294 294 297 300 300 301 301 297 294 291 286 286 291 292 290 291 293 292 291 291 291 293 295 297 299 301 296 292 296 298 296
238 244 252 253 253 262 259 242 245 258 276 262 253 237 226 236 249 258 266 267 266 264 262 269 273 233 165 72 21 343 317 305 297 288 281 277 270 267 284 301 312 317 315 309 304 297 293 293 293 294 299 306 314 316 315 315 314 312 309 306 304 301 298 296 294 289 287 290 292 291 289 289 288 287 286 283 285 289 291 294 296 293 291 295 295 293
232 239 251 254 248 251 254 248 255 279 282 263 258 259 254 260 264 276 286 286 261 249 251 248 230 180 129 2 332 319 307 298 291 281 280 280 263 256 290 310 316 317 314 312 311 306 301 298 298 305 318 328 330 330 330 326 321 315 309 307 305 302 300 297 293 290 290 292 293 292 290 288 286 286 284 279 279 284 287 289 292 289 288 292 294 292
240 241 242 251 253 250 261 263 260 268 271 261 272 0 38 34 26 346 299 283 223 211 221 178 157 129 67 316 305 305 294 285 284 284 298 325 296 268 298 311 313 316 319 318 315 314 314 319 326 334 340 338 333 332 332 326 319 314 310 308 306 304 302 299 295 294 295 294 293 293 291 289 288 287 286 280 279 283 287 288 288 283 283 288 290 289
246 250 239 248 258 249 254 261 255 260 269 219 163 49 69 68 43 356 294 282 220 157 115 94 83 28 276 274 282 284 265 268 278 287 318 347 334 311 307 309 313 316 316 317 323 332 343 348 345 339 337 335 330 329 330 327 320 315 312 311 308 303 301 301 300 300 299 296 294 292 290 291 291 290 288 285 282 285 288 289 286 280 280 285 284 283
193 229 223 231 243 240 244 251 252 265 294 70 129 111 118 108 43 335 286 286 151 156 147 115 357 295 275 270 278 272 259 266 282 296 315 321 313 309 308 308 311 312 315 327 346 353 347 340 335 331 329 329 327 328 332 330 323 316 313 312 309 305 304 305 304 303 300 297 294 291 290 291 292 292 291 289 287 288 289 288 284 280 281 284 280 277
173 209 220 226 237 239 242 249 255 263 271 276 274 165 135 121 356 270 273 288 142 180 189 186 244 271 274 273 277 271 270 280 289 295 303 305 303 303 304 305 308 316 332 355 3 349 333 326 325 324 324 327 329 331 333 332 323 317 315 313 309 306 306 307 305 303 300 296 293 292 292 293 294 294 293 291 290 290 288 285 281 280 282 283 279 276
189 201 223 233 240 242 245 253 264 266 243 230 252 175 148 185 263 265 273 121 159 195 215 225 243 261 267 268 275 279 281 286 287 288 292 295 298 300 302 309 320 335 349 351 342 336 328 322 321 323 326 333 332 330 331 329 322 316 313 309 306 307 308 308 306 305 302 299 296 296 297 297 297 295 294 292 290 288 286 284 282 281 281 280 276 275
244 247 244 240 239 243 249 246 252 270 255 144 130 143 186 222 256 276 144 160 184 212 248 247 250 259 263 270 281 285 285 284 282 283 286 289 294 299 309 331 345 339 334 330 329 334 333 326 323 324 327 331 328 326 329 327 319 314 309 305 306 309 309 307 307 307 304 300 299 300 301 300 299 298 296 294 292 290 287 286 285 283 282 279 277 276
247 244 252 253 240 242 253 242 238 273 273 158 166 227 241 240 256 274 274 253 254 279 286 272 269 270 272 281 285 283 284 284 282 283 286 289 295 306 323 339 333 323 324 327 332 339 339 332 326 321 321 325 325 323 324 322 316 310 306 305 309 312 310 308 309 308 304 301 301 301 302 301 300 299 297 295 293 289 287 286 284 282 280 278 275 274
211 219 236 247 250 254 263 268 278 295 267 186 196 237 258 264 265 266 271 278 281 285 283 278 280 283 283 282 278 275 278 281 282 285 287 293 305 318 320 318 318 319 324 331 339 341 336 330 325 318 315 318 321 319 317 317 314 308 304 307 310 312 310 310 310 306 303 302 301 300 301 301 299 297 296 294 292 288 285 284 283 280 278 276 273 271
225 236 241 245 256 261 263 266 273 275 262 240 229 233 245 257 264 265 268 269 268 271 275 275 278 283 284 277 268 265 269 274 280 286 291 301 311 313 310 309 314 322 330 339 343 335 328 324 319 313 310 312 318 318 314 313 309 304 305 308 309 308 308 308 307 303 301 300 299 298 300 299 296 295 294 293 290 286 283 283 282 279 278 276 273 271
239 246 247 244 249 255 257 257 257 260 261 258 252 247 246 251 258 263 266 267 268 271 272 270 272 276 278 272 260 258 265 271 278 283 292 304 303 305 310 310 316 329 337 340 334 326 324 322 315 311 310 310 314 317 314 312 309 305 305 307 307 307 305 304 302 300 298 298 297 297 298 296 294 293 293 291 289 286 284 283 281 280 279 278 277 276
240 240 239 238 243 249 256 259 258 260 263 263 263 263 261 258 259 262 262 263 269 269 255 240 253 259 258 257 253 255 262 266 271 279 290 299 299 303 309 312 322 331 329 327 323 319 319 316 309 308 309 308 311 313 312 311 312 311 308 308 309 309 306 303 299 297 297 297 296 295 294 293 292 292 291 289 288 286 285 284 282 280 278 277 278 277
252 243 231 236 249 255 257 257 259 262 264 263 259 256 255 257 260 263 264 265 266 258 203 172 196 228 238 247 245 246 257 260 266 279 287 291 296 303 311 319 324 323 318 316 315 314 314 310 305 305 305 304 307 310 309 310 311 312 312 310 310 309 307 303 301 299 298 297 296 294 293 292 291 291 290 289 288 285 282 281 280 279 278 276 274 273
251 247 241 243 253 254 246 243 245 252 261 265 262 258 260 265 263 257 256 255 248 230 196 178 181 182 193 218 223 227 246 257 268 280 284 288 298 307 315 320 318 313 312 311 309 308 307 304 302 302 301 301 305 308 309 310 311 312 313 312 311 310 307 304 302 300 297 296 294 293 293 293 292 291 289 289 288 287 285 281 278 278 279 279 277 275
238 242 242 241 246 249 247 244 244 248 259 267 272 273 272 266 247 238 244 250 237 200 175 186 194 192 189 186 183 201 237 255 276 298 294 289 296 306 313 315 312 308 307 307 306 307 306 304 303 301 300 302 306 307 308 309 309 311 312 312 312 312 307 303 301 298 296 295 294 293 293 292 291 290 288 287 287 287 287 287 283 280 279 279 280 281